When you browse on this site, cookies collect data to enhance your experience and personalize the content and advertising you see.
Visit our Privacy Policy to learn more. By continuing to use the site, you agree to this use of cookies and data.
  • In Hungary
  • List of Countries
  • For 7 days
  • Water Temperature
  • Satellite Maps
  • Weather Map
  • News
  • Weather Widgets
  • user-avatar
    Login

    Hourly Weather Santa Lucía

    Today, 14 December, Friday

    Time Temperature Precipitation Wind Pressure Humidity
    00:00 +23°C° 0 mm 1 mps 733 mmHg 76%
    01:00 +23°C° 0 mm 1 mps 732 mmHg 77%
    02:00 +22°C° 0 mm 1 mps 732 mmHg 79%
    03:00 +22°C° 0 mm 1 mps 732 mmHg 80%
    04:00 +22°C° 0 mm 1 mps 732 mmHg 81%
    05:00 +21°C° 0 mm 1 mps 732 mmHg 83%
    06:00 +21°C° 0 mm 1 mps 733 mmHg 84%
    07:00 +25°C° 0 mm 1 mps 733 mmHg 72%
    08:00 +28°C° 0 mm 1 mps 734 mmHg 60%
    09:00 +31°C° 0 mm 1 mps 734 mmHg 48%
    10:00 +33°C° 0 mm 1 mps 734 mmHg 42%
    11:00 +35°C° 0 mm 1 mps 733 mmHg 36%
    12:00 +37°C° 0 mm 1 mps 733 mmHg 30%
    13:00 +36°C° 0 mm 1 mps 732 mmHg 30%
    14:00 +36°C° 0 mm 1 mps 731 mmHg 30%
    15:00 +36°C° 0 mm 1 mps 731 mmHg 30%
    16:00 +33°C° 0 mm 1 mps 731 mmHg 37%
    17:00 +31°C° 0 mm 1 mps 731 mmHg 43%
    18:00 +28°C° 0 mm 1 mps 731 mmHg 49%
    19:00 +27°C° 0 mm 1 mps 732 mmHg 54%
    20:00 +26°C° 0 mm 2 mps 733 mmHg 59%
    21:00 +25°C° 0 mm 2 mps 733 mmHg 63%
    22:00 +25°C° 0 mm 2 mps 733 mmHg 67%
    23:00 +24°C° 0 mm 2 mps 733 mmHg 71%

    Tomorrow, 15 December, Saturday

    Time Temperature Precipitation Wind Pressure Humidity
    00:00 +24°C° 0 mm 2 mps 733 mmHg 75%
    01:00 +24°C° 0 mm 2 mps 733 mmHg 77%
    02:00 +24°C° 0 mm 2 mps 733 mmHg 79%
    03:00 +23°C° 0 mm 2 mps 733 mmHg 80%
    04:00 +23°C° 0 mm 2 mps 733 mmHg 81%
    05:00 +23°C° 0 mm 2 mps 733 mmHg 81%
    06:00 +23°C° 0 mm 2 mps 733 mmHg 81%
    07:00 +25°C° 0 mm 3 mps 734 mmHg 72%
    08:00 +28°C° 0 mm 3 mps 734 mmHg 63%
    09:00 +30°C° 0 mm 4 mps 735 mmHg 54%
    10:00 +32°C° 0 mm 4 mps 735 mmHg 50%
    11:00 +33°C° 0 mm 5 mps 734 mmHg 46%
    12:00 +35°C° 0 mm 5 mps 734 mmHg 42%
    13:00 +34°C° 0 mm 5 mps 733 mmHg 44%
    14:00 +33°C° 0 mm 5 mps 733 mmHg 46%
    15:00 +33°C° 0 mm 5 mps 732 mmHg 47%
    16:00 +30°C° 0 mm 5 mps 732 mmHg 53%
    17:00 +28°C° 0 mm 4 mps 733 mmHg 58%
    18:00 +26°C° 0 mm 4 mps 733 mmHg 63%
    19:00 +26°C° 0 mm 4 mps 734 mmHg 65%
    20:00 +25°C° 0 mm 3 mps 734 mmHg 66%
    21:00 +24°C° 0 mm 3 mps 735 mmHg 68%
    22:00 +24°C° 0 mm 3 mps 735 mmHg 69%
    23:00 +24°C° 0 mm 3 mps 735 mmHg 69%

    Day after tomorrow, 16 December, Sunday

    Time Temperature Precipitation Wind Pressure Humidity
    00:00 +22°C° 0 mm 3 mps 735 mmHg 70%
    01:00 +22°C° 0 mm 3 mps 734 mmHg 71%
    02:00 +22°C° 0 mm 3 mps 734 mmHg 72%
    03:00 +21°C° 0 mm 3 mps 733 mmHg 73%
    04:00 +21°C° 0 mm 3 mps 734 mmHg 73%
    05:00 +21°C° 0 mm 3 mps 734 mmHg 74%
    06:00 +21°C° 0 mm 3 mps 734 mmHg 74%
    07:00 +24°C° 0 mm 3 mps 735 mmHg 67%
    08:00 +26°C° 0 mm 4 mps 735 mmHg 60%
    09:00 +28°C° 0 mm 4 mps 736 mmHg 54%
    10:00 +30°C° 0 mm 4 mps 735 mmHg 51%
    11:00 +32°C° 0 mm 5 mps 735 mmHg 48%
    12:00 +33°C° 0 mm 5 mps 734 mmHg 45%
    13:00 +33°C° 0 mm 5 mps 734 mmHg 46%
    14:00 +32°C° 0 mm 5 mps 733 mmHg 47%
    15:00 +32°C° 0 mm 5 mps 732 mmHg 48%
    16:00 +29°C° 0 mm 4 mps 733 mmHg 53%
    17:00 +28°C° 0 mm 4 mps 733 mmHg 58%
    18:00 +26°C° 0 mm 3 mps 733 mmHg 63%
    19:00 +25°C° 0 mm 3 mps 734 mmHg 66%
    20:00 +24°C° 0 mm 3 mps 734 mmHg 68%
    21:00 +22°C° 0 mm 3 mps 735 mmHg 71%
    22:00 +22°C° 0 mm 3 mps 735 mmHg 71%
    23:00 +22°C° 0 mm 3 mps 734 mmHg 71%

    17 December, Monday

    Time Temperature Precipitation Wind Pressure Humidity
    00:00 +22°C° 0 mm 3 mps 734 mmHg 72%
    01:00 +22°C° 0 mm 3 mps 734 mmHg 72%
    02:00 +22°C° 0 mm 3 mps 733 mmHg 71%
    03:00 +22°C° 0 mm 3 mps 733 mmHg 71%
    04:00 +22°C° 0 mm 3 mps 733 mmHg 72%
    05:00 +21°C° 0 mm 3 mps 733 mmHg 72%
    06:00 +21°C° 0 mm 3 mps 734 mmHg 73%
    07:00 +24°C° 0 mm 3 mps 734 mmHg 66%
    08:00 +26°C° 0 mm 3 mps 735 mmHg 60%
    09:00 +29°C° 0 mm 3 mps 735 mmHg 53%
    10:00 +30°C° 0 mm 4 mps 735 mmHg 50%
    11:00 +33°C° 0 mm 4 mps 734 mmHg 46%
    12:00 +34°C° 0 mm 4 mps 733 mmHg 42%
    13:00 +34°C° 0 mm 4 mps 733 mmHg 43%
    14:00 +34°C° 0 mm 4 mps 732 mmHg 45%
    15:00 +33°C° 0 mm 4 mps 732 mmHg 46%
    16:00 +30°C° 0 mm 4 mps 732 mmHg 52%
    17:00 +28°C° 0 mm 4 mps 732 mmHg 58%
    18:00 +26°C° 0 mm 3 mps 733 mmHg 64%
    19:00 +25°C° 0 mm 3 mps 733 mmHg 66%
    20:00 +25°C° 0 mm 3 mps 734 mmHg 69%
    21:00 +24°C° 0 mm 3 mps 734 mmHg 71%
    22:00 +22°C° 0 mm 3 mps 734 mmHg 73%
    23:00 +22°C° 0 mm 3 mps 734 mmHg 74%

    18 December, Tuesday

    Time Temperature Precipitation Wind Pressure Humidity
    00:00 +21°C° 0 mm 3 mps 734 mmHg 75%
    01:00 +21°C° 0 mm 3 mps 733 mmHg 75%
    02:00 +21°C° 0 mm 2 mps 733 mmHg 75%
    03:00 +21°C° 0 mm 2 mps 733 mmHg 75%
    04:00 +21°C° 0 mm 2 mps 733 mmHg 76%
    05:00 +21°C° 0 mm 2 mps 733 mmHg 77%
    06:00 +21°C° 0 mm 2 mps 733 mmHg 78%
    07:00 +24°C° 0 mm 2 mps 734 mmHg 70%
    08:00 +27°C° 0 mm 2 mps 734 mmHg 61%
    09:00 +29°C° 0 mm 2 mps 734 mmHg 52%
    10:00 +31°C° 0 mm 2 mps 734 mmHg 47%
    11:00 +34°C° 0 mm 2 mps 733 mmHg 41%
    12:00 +36°C° 0 mm 2 mps 732 mmHg 36%
    13:00 +35°C° 0 mm 2 mps 732 mmHg 38%
    14:00 +35°C° 0 mm 3 mps 731 mmHg 40%
    15:00 +35°C° 0 mm 3 mps 730 mmHg 42%
    16:00 +32°C° 0.1 mm 2 mps 731 mmHg 49%
    17:00 +30°C° 0.1 mm 2 mps 731 mmHg 55%
    18:00 +28°C° 0.1 mm 2 mps 732 mmHg 62%
    19:00 +27°C° 0 mm 2 mps 732 mmHg 67%
    20:00 +26°C° 0 mm 2 mps 733 mmHg 71%
    21:00 +25°C° 0 mm 2 mps 733 mmHg 76%
    22:00 +24°C° 0 mm 2 mps 733 mmHg 78%
    23:00 +24°C° 0 mm 2 mps 733 mmHg 80%

    19 December, Wednesday

    Time Temperature Precipitation Wind Pressure Humidity
    00:00 +23°C° 0 mm 2 mps 732 mmHg 81%
    01:00 +23°C° 0 mm 2 mps 732 mmHg 82%
    02:00 +23°C° 0 mm 2 mps 732 mmHg 83%
    03:00 +23°C° 0 mm 2 mps 732 mmHg 83%
    04:00 +21°C° 0 mm 2 mps 732 mmHg 84%
    05:00 +21°C° 0 mm 2 mps 732 mmHg 84%
    06:00 +21°C° 0 mm 2 mps 733 mmHg 84%
    07:00 +25°C° 0 mm 2 mps 733 mmHg 74%
    08:00 +27°C° 0 mm 2 mps 733 mmHg 65%
    09:00 +30°C° 0 mm 1 mps 734 mmHg 55%
    10:00 +32°C° 0 mm 1 mps 733 mmHg 48%
    11:00 +34°C° 0 mm 1 mps 733 mmHg 42%
    12:00 +36°C° 0 mm 1 mps 732 mmHg 35%
    13:00 +35°C° 0 mm 1 mps 731 mmHg 37%
    14:00 +35°C° 0 mm 2 mps 731 mmHg 39%
    15:00 +35°C° 0 mm 2 mps 730 mmHg 41%
    16:00 +32°C° 0 mm 1 mps 730 mmHg 47%
    17:00 +30°C° 0 mm 1 mps 730 mmHg 54%
    18:00 +28°C° 0 mm 1 mps 731 mmHg 60%
    19:00 +27°C° 0 mm 1 mps 731 mmHg 64%
    20:00 +26°C° 0 mm 1 mps 732 mmHg 68%
    21:00 +26°C° 0 mm 1 mps 732 mmHg 72%
    22:00 +25°C° 0 mm 1 mps 732 mmHg 74%
    23:00 +25°C° 0 mm 1 mps 732 mmHg 76%
    Show more